TimeEST,TemperatureF,Dew PointF,Humidity,Sea Level PressureIn,VisibilityMPH,Wind Direction,Wind SpeedMPH,Gust SpeedMPH,PrecipitationIn,Events,Conditions,WindDirDegrees,DateUTC
12:56 AM,37.9,34.0,86,30.25,9.0,Calm,Calm,-,N/A,,Overcast,0,2012-11-10 05:56:00
1:56 AM,41.0,34.9,79,30.29,7.0,Calm,Calm,-,0.00,Rain,Rain,0,2012-11-10 06:56:00
2:56 AM,39.9,37.9,93,30.30,1.8,Calm,Calm,-,0.03,Rain,Rain,0,2012-11-10 07:56:00
3:06 AM,39.2,37.4,93,30.24,3.0,ESE,3.5,-,0.00,Rain,Light Rain,110,2012-11-10 08:06:00
3:22 AM,39.2,37.4,93,30.24,1.8,Calm,Calm,-,0.01,Rain,Light Rain,0,2012-11-10 08:22:00
3:26 AM,37.4,37.4,100,30.24,1.0,Calm,Calm,-,0.02,Rain,Light Rain,0,2012-11-10 08:26:00
3:35 AM,39.2,37.4,93,30.24,1.2,Calm,Calm,-,0.02,Rain,Light Rain,0,2012-11-10 08:35:00
3:39 AM,39.2,37.4,93,30.23,2.0,East,3.5,-,0.02,Rain,Light Rain,80,2012-11-10 08:39:00
3:56 AM,38.8,37.9,97,30.29,2.0,Calm,Calm,-,0.02,Rain,Light Rain,0,2012-11-10 08:56:00
4:03 AM,39.2,37.4,93,30.23,1.5,Calm,Calm,-,0.01,Rain,Light Rain,0,2012-11-10 09:03:00
4:24 AM,39.2,37.4,93,30.23,3.0,Calm,Calm,-,0.02,,Overcast,0,2012-11-10 09:24:00
4:36 AM,39.2,39.2,100,30.24,2.5,Calm,Calm,-,0.02,,Overcast,0,2012-11-10 09:36:00
4:43 AM,39.2,39.2,100,30.24,4.0,SW,3.5,-,0.02,,Overcast,230,2012-11-10 09:43:00
4:56 AM,39.9,38.8,96,30.30,4.0,South,3.5,-,0.02,,Overcast,170,2012-11-10 09:56:00
5:43 AM,41.0,39.2,93,30.23,6.0,Calm,Calm,-,0.00,Rain,Light Rain,0,2012-11-10 10:43:00
5:56 AM,41.0,38.8,92,30.29,9.0,SSE,3.5,-,0.00,,Overcast,160,2012-11-10 10:56:00
6:56 AM,41.0,38.8,92,30.31,7.0,Calm,Calm,-,N/A,,Overcast,0,2012-11-10 11:56:00
8:56 AM,43.0,38.8,85,30.33,10.0,Variable,3.5,-,N/A,,Overcast,0,2012-11-10 13:56:00
9:56 AM,45.9,39.9,80,30.32,10.0,Variable,5.8,-,N/A,,Overcast,0,2012-11-10 14:56:00
10:56 AM,50.9,41.0,69,30.30,10.0,SSE,6.9,-,N/A,,Partly Cloudy,160,2012-11-10 15:56:00
11:56 AM,56.8,41.0,55,30.27,10.0,Variable,4.6,-,N/A,,Clear,0,2012-11-10 16:56:00
12:56 PM,59.9,41.0,50,30.24,10.0,Variable,6.9,-,N/A,,Partly Cloudy,0,2012-11-10 17:56:00
1:56 PM,59.9,39.9,48,30.23,10.0,Variable,6.9,-,N/A,,Clear,0,2012-11-10 18:56:00
2:56 PM,63.0,39.9,43,30.21,10.0,Variable,4.6,-,N/A,,Clear,0,2012-11-10 19:56:00
3:56 PM,63.0,39.9,43,30.22,10.0,South,8.1,-,N/A,,Clear,190,2012-11-10 20:56:00
4:56 PM,61.0,38.8,44,30.23,10.0,South,4.6,-,N/A,,Clear,170,2012-11-10 21:56:00
5:56 PM,57.9,37.9,47,30.26,10.0,Calm,Calm,-,N/A,,Clear,0,2012-11-10 22:56:00
6:56 PM,56.8,37.9,49,30.28,10.0,Calm,Calm,-,N/A,,Mostly Cloudy,0,2012-11-10 23:56:00
7:56 PM,52.9,36.9,55,30.28,10.0,Calm,Calm,-,N/A,,Clear,0,2012-11-11 00:56:00
8:56 PM,54.9,36.9,51,30.27,10.0,SSE,4.6,-,N/A,,Clear,160,2012-11-11 01:56:00
9:56 PM,54.9,36.0,49,30.28,10.0,Calm,Calm,-,N/A,,Clear,0,2012-11-11 02:56:00
10:56 PM,54.9,34.9,47,30.27,10.0,Variable,3.5,-,N/A,,Clear,0,2012-11-11 03:56:00
11:56 PM,54.0,34.9,49,30.27,10.0,Variable,3.5,-,N/A,,Clear,0,2012-11-11 04:56:00